Wind_Speed
33 24 27 23 20 16 24 22 23 22 32 30 30 33 12 17 13 11 11 14 16 12 12 11 10 10 9 7 7 8 8 10 12 16 17 16 17 20 22 24 27 27 27 28
33 31 34 34 29 23 19 27 22 25 30 24 27 22 23 17 18 20 13 16 17 10 9 10 7 7 10 7 8 9 9 10 13 15 17 19 21 23 24 27 30 31 30 29
31 30 32 40 36 29 23 22 19 21 33 24 31 12 17 17 18 20 25 17 16 14 16 14 13 11 12 11 14 13 13 13 16 19 22 24 27 29 27 26 29 32 30 27
24 23 27 29 35 27 26 28 25 21 19 20 24 21 16 23 23 38 38 41 23 21 22 23 20 18 18 17 17 17 19 20 21 25 28 30 32 33 30 31 29 29 29 28
25 25 26 12 17 19 21 18 26 24 18 25 36 40 40 33 35 41 42 45 38 28 25 27 27 24 25 23 22 22 22 24 25 28 33 35 38 38 35 36 31 29 30 30
27 31 23 23 25 23 24 23 27 31 28 31 39 39 37 38 36 37 45 49 46 37 33 30 31 29 29 28 25 22 23 25 27 28 32 36 40 41 43 37 37 34 34 32
31 27 29 31 33 24 29 36 35 35 43 36 35 37 42 42 39 32 34 39 39 36 35 35 33 30 30 29 30 26 28 32 33 34 38 39 41 36 29 35 36 34 33 33
38 37 28 38 32 31 35 39 38 41 46 42 40 36 38 43 39 36 33 28 33 36 35 33 33 33 34 33 33 29 29 35 35 34 35 38 43 34 30 34 33 34 36 36
43 44 48 48 43 37 38 43 39 37 39 47 47 39 41 43 34 34 36 29 30 33 35 36 36 41 38 34 35 33 35 37 34 33 34 38 38 27 38 31 35 38 36 33
49 47 41 36 35 47 42 49 46 43 34 38 50 38 28 30 31 32 32 31 31 32 35 35 32 38 28 32 38 39 40 37 39 41 33 22 22 29 30 37 34 33 28 29
52 52 52 51 47 44 51 48 50 49 41 29 34 36 35 36 32 31 33 36 35 37 35 32 32 34 43 32 41 43 43 39 41 41 24 23 26 30 37 39 31 27 26 29
24 32 53 50 49 42 46 39 33 40 48 9 7 24 29 29 31 35 38 39 40 41 39 36 34 35 36 37 44 43 25 37 12 30 20 29 33 33 39 33 20 22 26 32
13 17 19 22 30 53 42 41 23 24 35 26 26 28 32 33 39 42 38 39 38 37 36 36 33 34 37 40 39 40 36 41 38 35 35 34 34 35 38 20 23 27 32 33
21 20 24 23 19 25 25 23 22 28 28 30 32 33 35 35 37 40 40 42 41 42 43 44 41 41 41 41 40 40 44 43 39 36 34 36 34 39 25 23 25 29 31 34
21 18 20 22 21 26 27 25 30 28 30 31 29 35 34 34 36 39 41 41 42 42 43 43 40 39 41 41 40 39 39 38 35 34 32 33 37 28 15 18 25 27 29 30
20 19 20 22 21 22 25 26 24 26 27 28 30 30 31 33 36 35 36 38 39 40 39 40 39 38 36 31 30 32 34 33 35 34 34 31 24 10 15 23 25 26 27 31
16 18 20 20 19 19 22 24 26 26 29 32 28 36 25 31 31 31 32 36 36 38 36 35 32 30 29 30 30 32 33 32 30 30 24 23 9 13 18 21 24 25 27 33
16 16 16 14 14 16 20 22 25 37 24 24 21 33 31 32 31 31 29 32 32 32 32 31 30 30 29 29 31 33 29 30 21 19 18 11 10 14 18 22 23 24 28 29
13 11 10 11 15 18 20 20 24 24 23 35 23 24 23 21 24 24 25 27 28 27 27 28 29 32 33 34 35 30 31 26 15 14 9 11 11 14 17 19 20 24 27 27
12 10 8 11 13 17 20 23 29 28 23 21 16 23 22 20 20 21 23 24 26 26 25 26 29 32 32 29 29 27 28 22 15 12 9 9 12 14 16 17 20 23 26 28
15 13 13 15 17 19 20 19 17 15 16 17 17 21 20 19 19 20 21 22 22 22 22 24 25 27 27 33 36 27 18 18 12 7 11 9 12 14 14 17 20 22 24 26
22 20 19 19 17 17 16 15 12 14 16 17 17 19 15 15 15 15 14 14 15 16 14 16 19 21 23 27 28 32 28 19 15 11 10 8 10 12 14 18 19 22 23 27
23 22 21 20 20 17 16 13 10 10 11 11 11 12 14 12 12 12 12 12 13 13 11 9 9 14 6 12 10 14 13 10 9 10 7 6 9 12 16 18 21 22 24 27
23 23 23 23 23 21 18 19 12 11 10 9 10 12 13 13 12 11 10 10 10 10 7 5 2 3 7 7 7 7 7 7 5 5 4 7 9 13 16 19 22 22 25 25
23 23 23 23 24 25 25 24 19 15 15 12 10 12 9 11 11 9 8 10 10 10 7 7 5 6 6 6 5 6 7 3 3 4 5 7 10 13 17 19 21 22 24 24
19 19 18 19 23 28 30 28 26 24 21 19 16 14 13 9 10 12 9 8 8 6 6 6 6 7 6 5 5 7 4 1 3 6 8 9 11 14 17 19 21 23 23 25
20 16 16 18 24 27 30 28 26 27 30 29 23 20 16 13 10 13 11 9 8 5 4 5 8 5 4 5 6 7 4 1 4 7 9 11 13 15 17 19 22 24 24 24
Wind_Direction
240 230 197 209 219 253 279 277 225 242 266 279 273 277 254 285 292 285 322 315 302 288 277 278 279 287 303 314 347 329 323 315 323 326 324 327 322 317 313 313 313 308 306 309
233 238 204 205 208 214 239 272 244 234 260 286 291 313 321 273 242 289 299 303 290 290 285 282 283 277 308 296 345 356 339 329 324 322 324 332 333 326 318 308 305 306 305 306
236 235 229 211 208 208 215 229 258 256 234 240 289 283 276 267 277 288 291 288 271 287 282 272 276 280 301 280 298 310 317 323 321 322 322 326 324 318 312 307 303 303 303 302
250 235 231 236 221 222 230 228 235 244 268 235 271 264 262 273 271 275 282 288 268 276 280 272 273 281 285 289 299 311 309 307 308 311 315 318 316 316 313 308 301 302 301 301
249 222 224 193 229 221 224 245 247 227 230 235 243 247 252 247 259 274 285 284 282 282 273 268 271 274 282 281 289 302 305 309 308 308 309 312 311 316 316 317 302 299 296 301
259 217 203 216 218 226 217 224 236 217 225 234 242 250 254 257 255 259 270 272 274 277 276 267 269 274 274 277 279 294 297 301 299 303 306 311 315 314 313 309 309 302 296 299
250 189 201 221 221 222 218 218 231 226 220 225 237 246 252 258 266 271 266 269 272 277 274 271 274 269 268 270 273 283 294 291 296 302 311 312 312 318 318 322 317 307 295 298
245 219 217 212 212 211 213 216 220 223 221 218 219 231 249 259 264 270 270 266 272 275 273 266 267 264 264 268 272 282 281 284 294 305 304 300 307 300 306 314 320 317 301 301
236 246 246 216 216 216 215 221 222 224 215 225 229 228 234 251 264 270 272 271 269 273 274 268 261 262 263 269 272 274 275 282 292 292 288 303 311 312 282 313 317 314 306 306
231 235 246 239 227 227 229 225 231 237 228 210 223 228 235 249 261 268 269 269 268 270 272 272 270 272 268 261 262 266 263 266 271 283 271 303 338 339 324 318 313 304 306 308
234 238 238 238 234 220 236 240 230 236 262 251 258 252 243 247 255 269 269 268 270 272 274 277 280 280 280 275 269 250 244 258 273 274 285 324 327 321 325 323 308 299 298 306
298 299 242 236 243 241 245 253 249 262 248 251 264 245 248 248 272 272 269 269 267 271 272 278 279 279 283 287 303 287 278 323 285 331 337 328 326 322 327 323 309 302 303 308
262 296 210 261 257 241 256 254 284 279 255 275 269 279 273 263 265 265 264 267 269 266 272 272 275 279 281 287 294 301 310 317 320 321 322 322 324 323 326 309 303 307 310 313
246 257 260 267 260 252 262 269 272 270 273 269 264 259 257 264 269 268 268 265 263 265 268 270 273 274 280 285 286 293 298 305 312 311 318 318 318 318 313 300 307 312 313 312
261 266 279 287 283 277 274 270 272 273 272 270 265 265 262 262 262 261 263 264 265 264 265 268 273 276 278 282 288 293 297 303 305 307 313 312 314 317 291 289 303 307 311 318
249 258 260 261 266 268 272 274 273 271 269 273 272 267 263 258 254 258 263 261 261 262 265 268 273 277 282 286 285 288 296 297 296 302 306 309 312 288 292 302 305 313 318 314
252 255 260 262 265 268 271 271 276 279 283 284 279 278 260 281 269 263 263 260 259 258 261 264 270 274 277 280 285 289 290 295 298 302 301 306 268 293 295 306 314 312 321 323
258 261 262 263 262 264 271 278 275 270 256 271 268 262 280 274 260 264 267 258 261 264 261 263 266 271 274 278 280 284 289 298 294 301 297 258 278 295 310 313 308 324 325 326
254 258 261 276 283 283 282 287 275 255 273 263 257 273 273 266 263 263 262 262 265 267 264 264 269 272 273 278 281 281 288 283 275 287 245 271 291 306 308 308 323 325 329 333
243 247 276 303 315 308 295 285 275 278 279 291 287 273 274 270 263 263 264 264 267 270 268 265 266 266 270 270 275 276 274 270 267 222 248 278 301 307 308 326 326 331 336 337
241 245 263 276 287 302 292 279 289 297 280 272 273 272 273 271 273 274 277 280 282 282 278 267 276 284 274 267 286 228 289 270 214 226 247 284 299 304 319 328 329 333 335 339
231 239 250 259 277 296 301 294 293 281 272 267 266 270 269 267 272 273 275 274 273 277 279 285 290 306 264 248 255 249 261 170 185 240 262 286 297 304 325 327 332 334 338 350
229 240 249 257 267 282 295 308 317 294 296 263 264 270 268 266 267 278 281 282 282 278 272 303 13 5 118 120 145 136 145 191 219 245 272 301 313 321 321 326 337 339 351 355
232 242 250 258 261 266 273 280 287 295 284 260 273 261 256 261 264 270 280 284 288 290 286 282 279 100 97 110 152 181 194 197 235 266 334 344 327 319 319 333 332 344 359 353
232 240 248 255 259 260 262 268 273 265 270 254 250 242 241 261 264 257 266 282 290 288 272 235 210 184 180 196 186 185 187 205 276 333 354 343 329 328 328 327 331 350 351 353
224 234 243 248 252 254 255 258 263 261 254 248 247 250 244 249 268 270 272 268 281 278 267 237 211 185 185 191 201 194 198 176 9 7 0 348 334 327 327 330 337 346 347 351
225 231 243 251 252 255 259 261 264 267 274 230 216 229 241 235 239 258 263 265 266 245 245 209 210 200 196 209 207 200 209 292 329 334 343 342 333 323 328 334 340 341 344 348
Height
5862 5865 5870 5873 5876 5880 5880 5882 5884 5886 5882 5881 5882 5873 5885 5887 5890 5890 5889 5889 5890 5889 5889 5890 5891 5890 5889 5888 5887 5885 5884 5883 5882 5880 5878 5876 5874 5871 5868 5865 5862 5860 5857 5853
5854 5858 5862 5864 5869 5873 5876 5878 5879 5881 5877 5880 5873 5872 5873 5882 5884 5884 5885 5886 5886 5886 5886 5886 5886 5886 5885 5884 5882 5881 5880 5879 5878 5876 5874 5872 5869 5867 5864 5861 5859 5855 5852 5848
5846 5852 5856 5857 5863 5867 5869 5872 5874 5875 5878 5877 5872 5874 5874 5875 5876 5877 5877 5883 5884 5884 5883 5883 5882 5882 5881 5880 5879 5878 5877 5875 5873 5871 5869 5867 5864 5861 5858 5855 5851 5848 5846 5843
5840 5846 5847 5856 5860 5863 5865 5868 5870 5871 5874 5873 5870 5869 5870 5870 5869 5871 5872 5874 5880 5880 5880 5879 5879 5879 5878 5876 5875 5874 5872 5869 5868 5866 5863 5861 5858 5855 5851 5848 5844 5840 5835 5834
5835 5839 5844 5850 5852 5854 5858 5863 5859 5864 5867 5870 5867 5867 5869 5869 5866 5865 5866 5867 5871 5875 5874 5874 5874 5874 5873 5871 5869 5868 5866 5864 5862 5861 5858 5856 5853 5849 5844 5840 5835 5832 5828 5825
5826 5831 5838 5839 5844 5848 5852 5854 5853 5855 5856 5859 5857 5858 5860 5862 5865 5866 5863 5862 5862 5866 5868 5867 5867 5867 5866 5865 5864 5862 5860 5857 5855 5854 5852 5850 5846 5842 5838 5832 5826 5824 5820 5816
5818 5817 5823 5828 5834 5840 5843 5846 5842 5843 5845 5846 5850 5852 5854 5856 5858 5859 5859 5856 5856 5858 5858 5858 5859 5860 5858 5858 5856 5855 5854 5850 5849 5849 5847 5843 5838 5834 5829 5825 5819 5813 5810 5808
5805 5806 5809 5817 5825 5828 5829 5829 5829 5831 5835 5837 5836 5841 5846 5849 5852 5852 5852 5853 5850 5848 5849 5851 5851 5849 5849 5849 5848 5847 5845 5841 5841 5841 5837 5832 5828 5824 5821 5816 5812 5807 5803 5798
5800 5801 5809 5810 5815 5814 5822 5821 5818 5820 5821 5828 5831 5833 5837 5841 5844 5845 5843 5845 5843 5841 5841 5840 5841 5840 5839 5840 5839 5836 5834 5832 5832 5831 5826 5823 5822 5814 5811 5808 5802 5797 5793 5789
5789 5795 5798 5804 5807 5811 5809 5810 5816 5816 5816 5814 5822 5824 5828 5832 5836 5838 5837 5836 5835 5835 5832 5832 5832 5825 5809 5824 5825 5822 5819 5820 5818 5818 5818 5815 5813 5807 5804 5800 5794 5788 5785 5782
5783 5788 5792 5796 5799 5803 5802 5804 5805 5805 5806 5808 5816 5822 5823 5824 5827 5830 5831 5828 5829 5825 5825 5824 5826 5825 5819 5799 5793 5784 5798 5805 5807 5807 5809 5807 5802 5800 5797 5792 5785 5780 5778 5775
5779 5778 5780 5792 5791 5793 5793 5793 5790 5795 5802 5802 5807 5812 5814 5817 5820 5823 5821 5820 5821 5817 5816 5816 5817 5817 5816 5810 5808 5795 5796 5802 5803 5804 5801 5799 5795 5791 5787 5782 5777 5774 5771 5768
5772 5772 5774 5782 5772 5778 5784 5791 5789 5790 5793 5795 5800 5805 5807 5809 5811 5811 5810 5809 5811 5810 5810 5807 5808 5809 5807 5803 5800 5799 5798 5794 5795 5796 5793 5790 5785 5781 5778 5774 5772 5768 5763 5759
5765 5766 5768 5771 5773 5776 5780 5781 5780 5784 5787 5789 5791 5795 5796 5797 5801 5798 5798 5798 5799 5797 5797 5797 5797 5798 5798 5796 5795 5794 5792 5791 5788 5785 5783 5781 5778 5773 5769 5767 5767 5763 5759 5754
5755 5757 5758 5760 5764 5765 5766 5771 5773 5776 5777 5779 5782 5783 5785 5788 5785 5783 5783 5785 5787 5788 5788 5786 5786 5785 5788 5788 5788 5786 5784 5781 5777 5778 5776 5774 5770 5765 5764 5765 5763 5759 5755 5748
5754 5756 5759 5761 5761 5762 5761 5762 5763 5765 5768 5768 5769 5770 5770 5769 5769 5771 5773 5773 5775 5776 5776 5776 5775 5774 5776 5777 5777 5776 5774 5772 5770 5769 5767 5767 5763 5760 5760 5760 5757 5752 5747 5741
5750 5753 5754 5754 5755 5755 5756 5757 5758 5758 5757 5757 5761 5759 5755 5759 5761 5762 5762 5762 5763 5764 5765 5765 5765 5766 5767 5766 5766 5766 5765 5763 5762 5761 5760 5760 5758 5756 5756 5754 5750 5746 5739 5732
5745 5747 5747 5747 5748 5749 5750 5751 5750 5746 5747 5751 5750 5748 5748 5751 5753 5751 5752 5753 5753 5754 5754 5755 5755 5756 5757 5758 5757 5756 5757 5757 5756 5755 5753 5752 5751 5752 5750 5748 5745 5739 5733 5726
5739 5740 5741 5741 5742 5742 5741 5744 5743 5742 5737 5740 5740 5741 5741 5742 5742 5743 5743 5744 5745 5746 5746 5746 5746 5746 5746 5746 5746 5749 5751 5750 5750 5749 5749 5748 5748 5747 5745 5744 5740 5735 5728 5721
5733 5734 5734 5734 5733 5735 5737 5739 5735 5734 5737 5731 5731 5735 5735 5735 5735 5735 5736 5737 5736 5737 5738 5737 5737 5737 5736 5736 5737 5737 5740 5744 5744 5744 5744 5745 5745 5743 5742 5738 5735 5730 5724 5718
5729 5731 5733 5735 5736 5736 5734 5733 5732 5730 5730 5731 5733 5732 5733 5732 5731 5732 5732 5732 5731 5731 5730 5731 5729 5727 5726 5724 5726 5723 5730 5738 5741 5741 5741 5741 5740 5740 5737 5734 5730 5726 5721 5715
5727 5730 5732 5733 5733 5732 5730 5729 5729 5730 5729 5729 5730 5729 5730 5731 5731 5731 5730 5730 5729 5728 5727 5725 5722 5717 5714 5716 5721 5721 5723 5730 5736 5738 5738 5737 5737 5736 5733 5730 5726 5723 5717 5711
5722 5724 5726 5727 5727 5727 5725 5725 5724 5724 5724 5724 5725 5725 5726 5727 5726 5725 5724 5724 5724 5724 5724 5722 5720 5716 5712 5714 5718 5722 5726 5730 5733 5736 5734 5733 5733 5732 5729 5727 5723 5720 5714 5707
5715 5717 5719 5720 5721 5722 5721 5718 5720 5719 5718 5719 5719 5720 5721 5722 5722 5721 5721 5721 5721 5720 5720 5720 5720 5720 5719 5719 5722 5725 5727 5729 5731 5733 5730 5729 5730 5729 5726 5723 5721 5716 5709 5705
5706 5708 5711 5713 5714 5714 5712 5712 5713 5713 5714 5714 5716 5714 5717 5719 5719 5717 5717 5717 5718 5717 5717 5717 5718 5719 5720 5721 5722 5724 5726 5728 5729 5728 5726 5726 5726 5725 5722 5720 5717 5711 5707 5703
5697 5700 5703 5705 5705 5703 5702 5704 5706 5706 5707 5708 5710 5712 5712 5713 5716 5717 5717 5714 5714 5715 5715 5716 5717 5718 5719 5720 5722 5724 5725 5725 5725 5725 5724 5723 5722 5721 5720 5717 5713 5708 5705 5700
5690 5693 5695 5697 5695 5694 5695 5698 5701 5700 5696 5682 5696 5701 5710 5711 5712 5713 5716 5714 5711 5712 5713 5714 5715 5716 5718 5719 5720 5721 5722 5723 5723 5722 5721 5720 5720 5718 5715 5713 5709 5705 5702 5698